When you browse on this site, cookies collect data to enhance your experience and personalize the content and advertising you see.
Visit our Privacy Policy to learn more. By continuing to use the site, you agree to this use of cookies and data.
  • In Hungary
  • List of Countries
  • For 7 days
  • Water Temperature
  • Satellite Maps
  • Weather Map
  • News
  • Weather Widgets
  • user-avatar
    Login

    Hourly Weather Gagra

    Today, 23 January, Wednesday

    Time Temperature Precipitation Wind Pressure Humidity
    00:00 0°C° 0 mm 3 mps 737 mmHg 79%
    01:00 0°C° 0 mm 3 mps 736 mmHg 76%
    02:00 0°C° 0 mm 3 mps 736 mmHg 73%
    03:00 0°C° 0 mm 3 mps 736 mmHg 71%
    04:00 0°C° 0 mm 3 mps 735 mmHg 71%
    05:00 0°C° 0 mm 3 mps 735 mmHg 70%
    06:00 0°C° 0 mm 3 mps 734 mmHg 70%
    07:00 +1°C° 0 mm 3 mps 734 mmHg 70%
    08:00 +1°C° 0 mm 4 mps 734 mmHg 71%
    09:00 +3°C° 0 mm 3 mps 734 mmHg 71%
    10:00 +4°C° 0 mm 3 mps 734 mmHg 71%
    11:00 +7°C° 0 mm 3 mps 734 mmHg 71%
    12:00 +8°C° 0 mm 3 mps 734 mmHg 71%
    13:00 +8°C° 0 mm 3 mps 733 mmHg 71%
    14:00 +7°C° 0 mm 4 mps 733 mmHg 70%
    15:00 +8°C° 0 mm 4 mps 733 mmHg 70%
    16:00 +6°C° 0 mm 4 mps 733 mmHg 68%
    17:00 +5°C° 0 mm 4 mps 733 mmHg 66%
    18:00 +2°C° 0 mm 5 mps 733 mmHg 65%
    19:00 +2°C° 0 mm 5 mps 733 mmHg 64%
    20:00 +3°C° 0 mm 5 mps 733 mmHg 64%
    21:00 +3°C° 0 mm 5 mps 733 mmHg 64%
    22:00 +3°C° 0 mm 5 mps 733 mmHg 64%
    23:00 +3°C° 0 mm 5 mps 733 mmHg 64%

    Tomorrow, 24 January, Thursday

    Time Temperature Precipitation Wind Pressure Humidity
    00:00 +2°C° 0 mm 5 mps 733 mmHg 64%
    01:00 +2°C° 0 mm 5 mps 733 mmHg 64%
    02:00 +2°C° 0 mm 5 mps 733 mmHg 64%
    03:00 +2°C° 0 mm 5 mps 733 mmHg 64%
    04:00 +2°C° 0 mm 5 mps 733 mmHg 65%
    05:00 +3°C° 0 mm 4 mps 732 mmHg 65%
    06:00 +3°C° 0 mm 4 mps 732 mmHg 65%
    07:00 +4°C° 0 mm 4 mps 732 mmHg 65%
    08:00 +5°C° 0 mm 4 mps 732 mmHg 64%
    09:00 +5°C° 0 mm 4 mps 732 mmHg 64%
    10:00 +7°C° 0 mm 4 mps 732 mmHg 66%
    11:00 +8°C° 0 mm 4 mps 731 mmHg 68%
    12:00 +11°C° 0 mm 4 mps 731 mmHg 71%
    13:00 +11°C° 0 mm 4 mps 730 mmHg 70%
    14:00 +11°C° 0 mm 4 mps 730 mmHg 69%
    15:00 +11°C° 0 mm 4 mps 730 mmHg 68%
    16:00 +8°C° 0 mm 4 mps 730 mmHg 64%
    17:00 +7°C° 0 mm 4 mps 730 mmHg 59%
    18:00 +6°C° 0 mm 4 mps 730 mmHg 55%
    19:00 +6°C° 0 mm 5 mps 730 mmHg 54%
    20:00 +6°C° 0 mm 5 mps 730 mmHg 52%
    21:00 +6°C° 0 mm 5 mps 729 mmHg 51%
    22:00 +6°C° 0 mm 5 mps 729 mmHg 52%
    23:00 +6°C° 0 mm 5 mps 729 mmHg 52%

    Day after tomorrow, 25 January, Friday

    Time Temperature Precipitation Wind Pressure Humidity
    00:00 +6°C° 0 mm 5 mps 729 mmHg 53%
    01:00 +6°C° 0 mm 4 mps 729 mmHg 53%
    02:00 +6°C° 0 mm 4 mps 730 mmHg 54%
    03:00 +6°C° 0 mm 4 mps 730 mmHg 54%
    04:00 +6°C° 0 mm 4 mps 730 mmHg 55%
    05:00 +6°C° 0 mm 4 mps 730 mmHg 56%
    06:00 +6°C° 0 mm 4 mps 730 mmHg 57%
    07:00 +6°C° 0 mm 4 mps 730 mmHg 58%
    08:00 +6°C° 0 mm 4 mps 730 mmHg 59%
    09:00 +6°C° 0 mm 4 mps 731 mmHg 60%
    10:00 +7°C° 0 mm 4 mps 731 mmHg 61%
    11:00 +9°C° 0 mm 3 mps 731 mmHg 62%
    12:00 +10°C° 0 mm 3 mps 731 mmHg 64%
    13:00 +10°C° 0 mm 3 mps 731 mmHg 64%
    14:00 +10°C° 0 mm 4 mps 731 mmHg 64%
    15:00 +10°C° 0 mm 4 mps 731 mmHg 64%
    16:00 +8°C° 0 mm 4 mps 731 mmHg 65%
    17:00 +7°C° 0 mm 4 mps 731 mmHg 66%
    18:00 +6°C° 0 mm 4 mps 731 mmHg 66%
    19:00 +6°C° 0 mm 4 mps 731 mmHg 67%
    20:00 +6°C° 0 mm 4 mps 731 mmHg 67%
    21:00 +6°C° 0 mm 4 mps 731 mmHg 67%
    22:00 +6°C° 0 mm 4 mps 731 mmHg 68%
    23:00 +6°C° 0 mm 4 mps 731 mmHg 68%

    26 January, Saturday

    Time Temperature Precipitation Wind Pressure Humidity
    00:00 +6°C° 0 mm 4 mps 731 mmHg 68%
    01:00 +6°C° 0 mm 4 mps 730 mmHg 67%
    02:00 +6°C° 0 mm 4 mps 730 mmHg 67%
    03:00 +6°C° 0 mm 4 mps 730 mmHg 66%
    04:00 +6°C° 0 mm 4 mps 729 mmHg 66%
    05:00 +6°C° 0 mm 4 mps 729 mmHg 65%
    06:00 +6°C° 0 mm 4 mps 729 mmHg 65%
    07:00 +7°C° 0.1 mm 4 mps 729 mmHg 66%
    08:00 +7°C° 0.1 mm 4 mps 729 mmHg 67%
    09:00 +7°C° 0.1 mm 4 mps 729 mmHg 67%
    10:00 +8°C° 0.1 mm 4 mps 729 mmHg 67%
    11:00 +10°C° 0.1 mm 3 mps 729 mmHg 67%
    12:00 +10°C° 0.1 mm 3 mps 729 mmHg 67%
    13:00 +10°C° 0.1 mm 3 mps 729 mmHg 67%
    14:00 +10°C° 0.1 mm 4 mps 728 mmHg 66%
    15:00 +10°C° 0.1 mm 4 mps 728 mmHg 65%
    16:00 +8°C° 0.2 mm 4 mps 728 mmHg 68%
    17:00 +7°C° 0.2 mm 4 mps 728 mmHg 71%
    18:00 +6°C° 0.2 mm 5 mps 728 mmHg 73%
    19:00 +7°C° 0.1 mm 5 mps 728 mmHg 73%
    20:00 +7°C° 0.1 mm 5 mps 728 mmHg 72%
    21:00 +7°C° 0.1 mm 5 mps 728 mmHg 71%
    22:00 +7°C° 0 mm 4 mps 728 mmHg 70%
    23:00 +7°C° 0 mm 4 mps 728 mmHg 69%

    27 January, Sunday

    Time Temperature Precipitation Wind Pressure Humidity
    00:00 +7°C° 0 mm 4 mps 728 mmHg 68%
    01:00 +7°C° 0.2 mm 4 mps 728 mmHg 69%
    02:00 +7°C° 0.2 mm 4 mps 728 mmHg 71%
    03:00 +7°C° 0.2 mm 4 mps 727 mmHg 72%
    04:00 +7°C° 0.4 mm 4 mps 727 mmHg 74%
    05:00 +7°C° 0.4 mm 4 mps 727 mmHg 76%
    06:00 +7°C° 0.4 mm 4 mps 727 mmHg 77%
    07:00 +7°C° 0.4 mm 4 mps 727 mmHg 78%
    08:00 +8°C° 0.4 mm 3 mps 727 mmHg 78%
    09:00 +8°C° 0.4 mm 3 mps 727 mmHg 79%
    10:00 +9°C° 0.3 mm 3 mps 727 mmHg 78%
    11:00 +9°C° 0.3 mm 3 mps 727 mmHg 77%
    12:00 +10°C° 0.3 mm 2 mps 727 mmHg 76%
    13:00 +10°C° 0.1 mm 2 mps 727 mmHg 75%
    14:00 +12°C° 0.1 mm 2 mps 727 mmHg 75%
    15:00 +12°C° 0.1 mm 2 mps 726 mmHg 74%
    16:00 +10°C° 0.1 mm 2 mps 727 mmHg 74%
    17:00 +9°C° 0.1 mm 3 mps 727 mmHg 75%
    18:00 +8°C° 0.1 mm 4 mps 727 mmHg 75%
    19:00 +7°C° 0.2 mm 4 mps 728 mmHg 75%
    20:00 +7°C° 0.2 mm 4 mps 728 mmHg 75%
    21:00 +7°C° 0.2 mm 4 mps 728 mmHg 76%
    22:00 +7°C° 0.1 mm 4 mps 728 mmHg 76%
    23:00 +7°C° 0.1 mm 4 mps 728 mmHg 75%

    28 January, Monday

    Time Temperature Precipitation Wind Pressure Humidity
    00:00 +7°C° 0.1 mm 4 mps 729 mmHg 75%
    01:00 +7°C° 0 mm 4 mps 729 mmHg 74%
    02:00 +8°C° 0 mm 3 mps 729 mmHg 73%
    03:00 +8°C° 0 mm 3 mps 729 mmHg 71%
    04:00 +7°C° 0 mm 4 mps 728 mmHg 71%
    05:00 +6°C° 0 mm 4 mps 728 mmHg 70%
    06:00 +6°C° 0 mm 4 mps 728 mmHg 70%
    07:00 +8°C° 0 mm 3 mps 728 mmHg 70%
    08:00 +8°C° 0 mm 3 mps 729 mmHg 70%
    09:00 +8°C° 0 mm 3 mps 729 mmHg 70%
    10:00 +10°C° 0 mm 2 mps 729 mmHg 69%
    11:00 +12°C° 0 mm 1 mps 728 mmHg 68%
    12:00 +13°C° 0 mm 1 mps 728 mmHg 67%
    13:00 +13°C° 0 mm 1 mps 729 mmHg 68%
    14:00 +13°C° 0 mm 1 mps 729 mmHg 69%
    15:00 +13°C° 0 mm 1 mps 729 mmHg 70%
    16:00 +12°C° 0.1 mm 1 mps 730 mmHg 73%
    17:00 +10°C° 0.1 mm 1 mps 731 mmHg 77%
    18:00 +9°C° 0.1 mm 1 mps 731 mmHg 80%
    19:00 +9°C° 0.1 mm 1 mps 732 mmHg 80%
    20:00 +8°C° 0.1 mm 2 mps 733 mmHg 79%
    21:00 +8°C° 0.1 mm 2 mps 733 mmHg 79%
    22:00 +8°C° 0 mm 2 mps 734 mmHg 81%
    23:00 +7°C° 0 mm 2 mps 735 mmHg 82%
    Show more